sat.trackr.live / text

‹ back to catalog

STARLINK-34967

NORAD 65177 · 2025-175D

PAYLOAD ACTIVE UNKNOWN

§ Identity

Operator
Country
US
Launch date
2025-08-14
Launch site
AFWTR
Launch vehicle
Mass (kg)
RCS (m²)

Purposes: comms

External: N2YO · Heavens-Above · Gunter

§ Orbital elements

Epoch: 2026-05-25T02:18:10.944000Z

Period
95.64 min
Inclination
97.4523°
Eccentricity
0.0002297
Mean motion
15.05658077 rev/d
Perigee alt
547.9 km
Apogee alt
551.1 km
Semi-major
6,927.6 km
B*
2.2182e-4
RAAN
17.5348°
Arg perigee
82.4919°
Mean anomaly
277.6569°
Rev number
4,413

§ Raw data

STARLINK-349671 65177U 25175D   26145.09596000  .00003144  00000+0  22182-3 0  99922 65177  97.4523  17.5348 0002297  82.4919 277.6569 15.05658077 44137

JSON: /api/v1/satellites/65177 · /tle

For live sub-satellite position, see the globe view (requires WebGL).

§ Visibility from observer

Set your observer location to see the next 7 days of passes ≥ 10°. The values pass through the URL so the page stays shareable.

No JS? Fill the form by hand. The geolocation button needs JavaScript.